Other Surface Observations
Issued by NWS

Home | Current Version | Previous Version | Text Only | Print | Product List | Glossary On
Versions: 1 2 3 4 5 6 7 8 9 10 11 12 13 14 15 16 17 18 19 20 21 22 23 24 25 26 27 28 29 30 31 32 33 34 35 36 37 38 39 40 41 42 43 44 45 46 47 48 49 50
000
SXUS52 KTAE 290818
OSOTAE
OSOTAE
North Florida/South Alabama/Southwest Georgia Weather Roundup
National Weather Service Tallahassee Florida
300 AM EST THU JAN 29 2015

Note: "fair" indicates few or no clouds below 12,000 feet with no
significant weather and/or obstructions to visibility.

!FLZ017-115-028-034-025-290900
...North Florida...

CITY           SKY/WX    TMP DP  RH WIND       PRES   REMARKS
TALLAHASSEE    CLEAR     33  28  81 CALM      30.29F
APALACHICOLA   CLEAR     43  38  82 E7        30.26F WCI  39
PERRY          CLEAR     35  33  93 CALM      30.32R
CROSS CITY       N/A     30  27  88 CALM      30.31S
JACKSONVILLE   CLEAR     32  32 100 CALM      30.30S
$$

!FLZ112-006-005-002-011-290900
...Florida Panhandle...

CITY           SKY/WX    TMP DP  RH WIND       PRES   REMARKS
MARIANNA       PTCLDY    37  34  89 CALM      30.27R
BONIFAY        FAIR      36  34  92 CALM      30.29R
PANAMA CITY NW FAIR      40  35  83 CALM      30.26R
TYNDALL AFB    PTCLDY    44  42  94 E5        30.27S WCI  41
TYND DRONE APT FAIR      42  42  99 E3        30.25F
DE FUNIAK SPR  FAIR      42  33  71 SE3       30.28R
EGLIN AFB      PTCLDY    42  37  82 NE5       30.26  WCI  39
DESTIN         PTCLDY    50  42  74 E6        30.26R
HURLBURT       PTCLDY    45  39  78 E6        30.25R WCI  42
CRESTVIEW      PTCLDY    33  32  96 CALM      30.28R
PENSACOLA      CLEAR     50  45  83 E6        30.25R
$$

!ALZ063-066-290900
...South Alabama...

CITY           SKY/WX    TMP DP  RH WIND       PRES   REMARKS
DOTHAN         PTCLDY    39  33  79 SE3       30.30R
OZARK CAIRNS   PTCLDY    37  32  82 CALM      30.28R
FT RUCKER HELI PTCLDY    33  31  92 CALM      30.27R
RUCKER HELI 3  FAIR      39  34  81 SE3       30.29R
RUCKER HELI 2  FAIR      36  32  85 CALM      30.27R
FLORALA APT    PTCLDY    42  33  70 SE3       30.28R
ANDALUSIA      PTCLDY    43  33  68 SE5       30.27R WCI  40
TROY           PTCLDY    36  31  82 CALM      30.28R
EUFALA         FAIR      34  31  88 CALM      30.28
MOBILE         MOCLDY    41  40  96 CALM      30.26R
$$

!GAZ120>161-290900
...Southwest and South Central Georgia...

CITY           SKY/WX    TMP DP  RH WIND       PRES   REMARKS
THOMASVILLE    FAIR      36  36 100 SE3       30.29F
BAINBRIDGE     FAIR      37  36  93 SE5       30.28S WCI  34
MOODY AFB      CLEAR     35  31  85 SE1       30.30S
VALDOSTA       CLEAR     34  32  92 CALM      30.31S
MOULTRIE       CLEAR     37  36  93 E3        30.29F
BLAKELY        PTCLDY    34  34 100 CALM      30.29R
ALBANY         PTCLDY    34  31  88 CALM      30.30S
TIFTON         FAIR      36  32  87 SE5       30.29F WCI  32
FITZGERALD     FAIR      33  31  94 CALM      30.32F
CORDELE        FAIR      37  31  80 CALM      30.30S
AMERICUS       FAIR      36  32  87 SE3       30.30S
HOMERVILLE     FAIR      34  34 100 CALM      30.32R
$$

!GMZ750-755-770-775-290900
...Coastal and Buoy Obs...

STATION/POSITION TIME  TEMP    WIND        PRES    VSBY  WAVE
                       AIR SEA DIR/SP/G                  HT/PER
                 (UTC) (F)     (DEG/KT/KT) (MB)    (MI)  (FT/S)
KEATON BEACH     0800   41      80/  8/  9 1026.2F
CEDAR KEY        0757   47      80/  9/ 10 1026.3F
C TOWER          0800   55     100/ 16/ 17 1024.4F
APALACHICOLA BUO 0800   59 67  100/ 16/ 17 1024.5F         2/ 4
PANAMA CITY BUOY 0738   60 70  100/ 16/ 19 1023.8F         2/ 4
MOBILE BUOY      0652   63 68  130/ 10/ 12 1024.3R         2/ 5
ORANGE BCH AL BU 0800   61 63  130/ 12/ 14 1023.7R         2/ 3
$$



USA.gov is the U.S. government's official web portal to all federal, state and local government web resources and services.